This demonstration page uses our WeatherBlox Daily Observations layout. Learn more.

Left ArrowRight Arrow

Hourly Observations for November 8, 2020

Temp ( °F °C ) Dew Point ( °F °C ) Humidity (%) Winds ( mph kmh ) Pressure ( in mb ) Visibility ( mi km ) Precip ( " mm )
12:52 am 00:52 Mostly Clear 60 15.6 48 8.9 65 65 S 22 35 29.83 1010 10 16 0.00 0.00
1:52 am 01:52 Mostly Clear 60 15.6 49 9.4 67 67 S 23 37 29.83 1010 10 16 0.00 0.00
2:52 am 02:52 Clear 59 15 49 9.4 69 69 S 23 37 29.83 1010 10 16 0.00 0.00
3:52 am 03:52 Clear 58 14.4 50 10 75 75 S 22 35 29.83 1010 10 16 0.00 0.00
4:52 am 04:52 Clear 58 14.4 50 10 75 75 S 21 33 29.84 1011 10 16 0.00 0.00
5:52 am 05:52 Clear 57 13.9 51 10.6 81 81 S 18 30 29.85 1011 10 16 0.00 0.00
6:52 am 06:52 Mostly Clear 56 13.3 52 11.1 87 87 S 21 33 29.85 1011 10 16 0.00 0.00
7:52 am 07:52 Mostly Sunny 58 14.4 54 12.2 87 87 S 24 39 29.85 1011 10 16 0.00 0.00
8:52 am 08:52 Mostly Cloudy 61 16.1 56 13.3 84 84 S 24 39 29.86 1011 10 16 0.00 0.00
9:52 am 09:52 Mostly Cloudy 63 17.2 56 13.3 78 78 S 26 43 29.85 1011 10 16 0.00 0.00
10:05 am 10:05 Mostly Sunny 64 17.8 56 13.3 75 75 S 29 46 29.84 1011 10 16 0.00 0.00
10:52 am 10:52 Partly Cloudy 67 19.4 56 13.3 68 68 S 31 50 29.83 1010 10 16 0.00 0.00
11:52 am 11:52 Partly Cloudy 70 21.1 56 13.3 61 61 S 29 46 29.82 1010 10 16 0.00 0.00
12:52 pm 12:52 Partly Cloudy 72 22.2 55 12.8 55 55 SSE 29 46 29.79 1009 10 16 0.00 0.00
1:52 pm 13:52 Mostly Cloudy 74 23.3 55 12.8 52 52 SSE 26 43 29.80 1009 10 16 0.00 0.00
2:52 pm 14:52 Partly Cloudy 74 23.3 54 12.2 50 50 S 25 41 29.79 1009 10 16 0.00 0.00
3:52 pm 15:52 Partly Cloudy 72 22.2 54 12.2 53 53 SSE 29 46 29.79 1009 10 16 0.00 0.00
4:52 pm 16:52 Partly Cloudy 72 22.2 52 11.1 50 50 S 26 43 29.80 1009 10 16 0.00 0.00
5:52 pm 17:52 Partly Cloudy 69 20.6 51 10.6 53 53 SSE 16 26 29.82 1010 10 16 0.00 0.00
6:52 pm 18:52 Partly Cloudy 69 20.6 52 11.1 55 55 S 18 30 29.82 1010 10 16 0.00 0.00
7:52 pm 19:52 Mostly Clear 68 20 53 11.7 59 59 SSE 18 30 29.83 1010 10 16 0.00 0.00
8:52 pm 20:52 Clear 66 18.9 54 12.2 65 65 SSE 18 30 29.84 1011 10 16 0.00 0.00
9:52 pm 21:52 Partly Cloudy 66 18.9 55 12.8 68 68 S 18 30 29.84 1011 10 16 0.00 0.00
10:52 pm 22:52 Partly Cloudy 66 18.9 56 13.3 70 70 SSE 20 31 29.85 1011 10 16 0.00 0.00
11:52 pm 23:52 Partly Cloudy 65 18.3 57 13.9 76 76 SSE 21 33 29.83 1010 10 16 0.00 0.00

Powered by AerisWeather